Flag for U.S.A. Weather past 2 weeks in Elizabeth, New Jersey, U.S.A.

Now
46 °F

Passing clouds.


Feels Like: 41 °F
Forecast: 39 / 48 °F
Wind: 12 mph from Northwest

Location: Newark International Airport

Current Time: Mar 31, 2015 at 12:01:12 AM

Latest Report: Mar 30, 2015 at 10:51 PM


Visibility: 10 mi

Pressure: 29.88 "Hg

Humidity: 54%

Dew point: 30 °F

Location of ElizabethLocation

Historic Weather in Elizabeth — Graph

°F

Elizabeth temperature yesterday

Maximum temperature yesterday: 54 °F (at 1:51 PM)
Minimum temperature yesterday: 36 °F (at 1:51 AM)
Average temperature yesterday: 44 °F

Past Weeks' High & Low Weather Summary

 TemperatureHumidityPressure
High63 °F (Mar 26, 7:51 PM)100% (Mar 26, 7:51 AM)30.42 "Hg (Mar 26, 7:51 AM)
Low23 °F (Mar 23, 6:51 AM)15% (Mar 29, 4:51 PM)29.56 "Hg (Mar 17, 10:51 AM)
Average39 °F51%30.05 "Hg
* Reported Mar 15 10:51 PM — Mar 30 10:51 PM, Elizabeth, Weather by CustomWeather, © 2015

Note: Actual official high and low records may vary slightly from our data, if they occured in-between our weather recording intervals... More about our weather records

Advertising

Elizabeth weather history for previous 24 hours

 ConditionsComfort  
Time TempWeatherWind HumidityBarometerVisibility
10:51 PM
Mon, Mar 30
46 °FPassing clouds.12 mph54%29.88 "Hg10 mi
9:51 PM47 °FPassing clouds.13 mph52%29.87 "Hg10 mi
8:51 PM50 °FPassing clouds.9 mph35%29.83 "Hg10 mi
7:51 PM51 °FScattered clouds.13 mph32%29.80 "Hg10 mi
6:51 PM53 °FScattered clouds.20 mph28%29.79 "Hg10 mi
5:51 PM53 °FPartly sunny.23 mph31%29.78 "Hg10 mi
4:51 PM52 °FPartly sunny.20 mph37%29.78 "Hg10 mi
3:51 PM52 °FBroken clouds.22 mph38%29.78 "Hg10 mi
2:51 PM54 °FPartly sunny.21 mph37%29.78 "Hg10 mi
1:51 PM54 °FBroken clouds.20 mph40%29.78 "Hg10 mi
12:51 PM49 °FBroken clouds.15 mph50%29.82 "Hg10 mi
11:51 AM44 °FBroken clouds.18 mph65%29.84 "Hg10 mi
10:51 AM40 °FMostly cloudy.17 mph70%29.87 "Hg10 mi
9:51 AM38 °FMostly cloudy.12 mph76%29.88 "Hg10 mi
8:51 AM38 °FMore clouds than sun.17 mph76%29.90 "Hg10 mi
7:51 AM37 °FMostly cloudy.14 mph76%29.92 "Hg10 mi
6:51 AM36 °FMostly cloudy.5 mph67%29.93 "Hg10 mi
5:51 AM38 °FMostly cloudy.14 mph45%29.98 "Hg10 mi
4:51 AM37 °FMostly cloudy.12 mph42%30.00 "Hg10 mi
3:51 AM37 °FMostly cloudy.16 mph41%30.02 "Hg10 mi
2:51 AM37 °FMostly cloudy.13 mph39%30.05 "Hg10 mi
1:51 AM36 °FPassing clouds.10 mph40%30.08 "Hg10 mi
12:51 AM38 °FPassing clouds.13 mph34%30.12 "Hg10 mi
Weather by CustomWeather, © 2015

See weather overviewHow to use our weather pages